HISTORICAL SENSOR DATA

Sensor Data Report

DB LIVE
CURRENT TIME--:--:--
DEVICE NETWORK Gateway Status
13 ESP · realtime ~1s · history 60s
Weather WS-MOD-01
ONLINE
Actuator ACT-MOD-01
OFFLINE
Mainboard L3 MB-L3-01
ONLINE
Mainboard L5 MB-L5-01
ONLINE
Remote AC AC-REMOTE-01
ONLINE
PZEM L3-01 PWR-L3-01
OFFLINE
PZEM L3-02 PWR-L3-02
OFFLINE
PZEM L3-03 PWR-L3-03
OFFLINE
PZEM L3-04 PWR-L3-04
OFFLINE
PZEM L5-01 PWR-L5-01
ONLINE
PZEM L5-02 PWR-L5-02
ONLINE
PZEM L5-03 PWR-L5-03
OFFLINE
PZEM L5-04 PWR-L5-04
OFFLINE
REPORT FILTER

Periode & Sensor

DATABASE HISTORY
RESET
QUICK RANGE Hari ini 7 hari 30 hari
PERIODE31 Aug 2026sampai 06 Sep 2026
TOTAL DATA67,817sensor readings
MINIMUM-0.50sesuai filter
AVERAGE84.86sesuai filter
MAXIMUM32,564.20sesuai filter
REPORT RESULT

Data Sensor

31/08/2026 — 06/09/2026 EXPORT CSV
NOTANGGALWAKTUDEVICECHANNELSENSORVALUEUNIT
4101 06/09/2026 22:59:00 MB-L5-01Mainboard Lantai 5 L5-HFT-01 Heat Flow Temperature 1 24.70 °C
4102 06/09/2026 22:59:00 MB-L5-01Mainboard Lantai 5 L5-LUX-04 Illuminance / LUX 4 0.10 lux
4103 06/09/2026 22:59:00 WS-MOD-01Weather Station Module WS-RH Kelembapan Udara 74.80 %RH
4104 06/09/2026 22:59:00 MB-L5-01Mainboard Lantai 5 L5-RAD-01 Radiation 1 1.00 W/m²
4105 06/09/2026 22:59:00 MB-L5-01Mainboard Lantai 5 L5-AI-01 Analog Input 1 3.05 V
4106 06/09/2026 22:59:00 MB-L5-01Mainboard Lantai 5 L5-LUX-02 Illuminance / LUX 2 0.10 lux
4107 06/09/2026 22:59:00 PWR-L5-01Power Meter L5 PZEM 01 PZEM-L5-01-FREQ PZEM L5-01 Frequency 50.00 Hz
4108 06/09/2026 22:58:00 MB-L5-01Mainboard Lantai 5 L5-LUX-01 Illuminance / LUX 1 0.00 lux
4109 06/09/2026 22:58:00 WS-MOD-01Weather Station Module WS-DIR Arah Angin 94.50 °
4110 06/09/2026 22:58:00 MB-L3-01Mainboard Lantai 3 L3-RAD-02 Radiation 2 1.00 W/m²
4111 06/09/2026 22:58:00 MB-L5-01Mainboard Lantai 5 L5-ST-01 Surface Temperature 1 25.00 °C
4112 06/09/2026 22:58:00 MB-L3-01Mainboard Lantai 3 L3-AI-05 Analog Input 5 3.12 V
4113 06/09/2026 22:58:00 MB-L5-01Mainboard Lantai 5 L5-HFT-02 Heat Flow Temperature 2 24.20 °C
4114 06/09/2026 22:58:00 MB-L3-01Mainboard Lantai 3 L3-LUX-02 Illuminance / LUX 2 0.20 lux
4115 06/09/2026 22:58:00 PWR-L5-02Power Meter L5 PZEM 02 PZEM-L5-02-POWER PZEM L5-02 Active Power 0.00 W
4116 06/09/2026 22:58:00 MB-L5-01Mainboard Lantai 5 L5-AI-02 Analog Input 2 3.05 V
4117 06/09/2026 22:58:00 PWR-L5-01Power Meter L5 PZEM 01 PZEM-L5-01-VOLT PZEM L5-01 Voltage 227.10 V
4118 06/09/2026 22:58:00 AC-REMOTE-01Remote AC AC-MODE AC Operating Mode 1.00 code
4119 06/09/2026 22:58:00 MB-L3-01Mainboard Lantai 3 L3-SHT-01-T SHT20 1 Temperature 29.00 °C
4120 06/09/2026 22:58:00 MB-L3-01Mainboard Lantai 3 L3-SHT-02-T SHT20 2 Temperature 29.30 °C
4121 06/09/2026 22:58:00 PWR-L5-02Power Meter L5 PZEM 02 PZEM-L5-02-PF PZEM L5-02 Power Factor 0.00
4122 06/09/2026 22:58:00 MB-L5-01Mainboard Lantai 5 L5-BGT-01 Black Globe Temperature 1 27.10 °C
4123 06/09/2026 22:58:00 MB-L5-01Mainboard Lantai 5 L5-AI-05 Analog Input 5 3.05 V
4124 06/09/2026 22:58:00 MB-L3-01Mainboard Lantai 3 L3-AI-03 Analog Input 3 3.12 V
4125 06/09/2026 22:58:00 WS-MOD-01Weather Station Module WS-WIND Kecepatan Angin 6.10 m/s
4126 06/09/2026 22:58:00 PWR-L5-01Power Meter L5 PZEM 01 PZEM-L5-01-CURR PZEM L5-01 Current 0.13 A
4127 06/09/2026 22:58:00 MB-L5-01Mainboard Lantai 5 L5-ST-02 Surface Temperature 2 24.40 °C
4128 06/09/2026 22:58:00 MB-L5-01Mainboard Lantai 5 L5-SHT-01-RH SHT20 1 Humidity 45.20 %RH
4129 06/09/2026 22:58:00 PWR-L5-02Power Meter L5 PZEM 02 PZEM-L5-02-CURR PZEM L5-02 Current 0.00 A
4130 06/09/2026 22:58:00 MB-L3-01Mainboard Lantai 3 L3-LUX-06 Illuminance / LUX 6 0.30 lux
4131 06/09/2026 22:58:00 WS-MOD-01Weather Station Module WS-PRES Tekanan Udara 912.00 hPa
4132 06/09/2026 22:58:00 MB-L5-01Mainboard Lantai 5 L5-SHT-02-T SHT20 2 Temperature 29.30 °C
4133 06/09/2026 22:58:00 MB-L3-01Mainboard Lantai 3 L3-LUX-04 Illuminance / LUX 4 0.10 lux
4134 06/09/2026 22:58:00 AC-REMOTE-01Remote AC AC-SETPOINT AC Set Temperature 23.00 °C
4135 06/09/2026 22:58:00 PWR-L5-01Power Meter L5 PZEM 01 PZEM-L5-01-POWER PZEM L5-01 Active Power 10.60 W
4136 06/09/2026 22:58:00 MB-L3-01Mainboard Lantai 3 L3-AI-01 Analog Input 1 3.12 V
4137 06/09/2026 22:58:00 MB-L5-01Mainboard Lantai 5 L5-SHT-03-RH SHT20 3 Humidity 44.90 %RH
4138 06/09/2026 22:58:00 MB-L3-01Mainboard Lantai 3 L3-SHT-02-RH SHT20 2 Humidity 44.40 %RH
4139 06/09/2026 22:58:00 MB-L5-01Mainboard Lantai 5 L5-SHT-01-T SHT20 1 Temperature 29.00 °C
4140 06/09/2026 22:58:00 MB-L3-01Mainboard Lantai 3 L3-SHT-03-RH SHT20 3 Humidity 44.80 %RH
4141 06/09/2026 22:58:00 MB-L5-01Mainboard Lantai 5 L5-LUX-03 Illuminance / LUX 3 0.20 lux
4142 06/09/2026 22:58:00 MB-L5-01Mainboard Lantai 5 L5-SHT-03-T SHT20 3 Temperature 29.30 °C
4143 06/09/2026 22:58:00 MB-L3-01Mainboard Lantai 3 L3-AI-06 Analog Input 6 3.12 V
4144 06/09/2026 22:58:00 MB-L5-01Mainboard Lantai 5 L5-AI-03 Analog Input 3 3.05 V
4145 06/09/2026 22:58:00 MB-L5-01Mainboard Lantai 5 L5-SHT-02-RH SHT20 2 Humidity 44.50 %RH
4146 06/09/2026 22:58:00 PWR-L5-02Power Meter L5 PZEM 02 PZEM-L5-02-FREQ PZEM L5-02 Frequency 50.00 Hz
4147 06/09/2026 22:58:00 MB-L3-01Mainboard Lantai 3 L3-RAD-01 Radiation 1 1.00 W/m²
4148 06/09/2026 22:58:00 PWR-L5-01Power Meter L5 PZEM 01 PZEM-L5-01-ENERGY PZEM L5-01 Energy 0.05 kWh
4149 06/09/2026 22:58:00 MB-L5-01Mainboard Lantai 5 L5-BGT-02 Black Globe Temperature 2 26.90 °C
4150 06/09/2026 22:58:00 PWR-L5-02Power Meter L5 PZEM 02 PZEM-L5-02-VOLT PZEM L5-02 Voltage 227.00 V
4151 06/09/2026 22:58:00 MB-L5-01Mainboard Lantai 5 L5-AI-06 Analog Input 6 3.05 V
4152 06/09/2026 22:58:00 AC-REMOTE-01Remote AC AC-POWER AC Power State 1.00 state
4153 06/09/2026 22:58:00 MB-L3-01Mainboard Lantai 3 L3-AI-04 Analog Input 4 3.12 V
4154 06/09/2026 22:58:00 MB-L3-01Mainboard Lantai 3 L3-LUX-05 Illuminance / LUX 5 0.30 lux
4155 06/09/2026 22:58:00 MB-L5-01Mainboard Lantai 5 L5-RAD-02 Radiation 2 1.00 W/m²
4156 06/09/2026 22:58:00 MB-L5-01Mainboard Lantai 5 L5-HFT-01 Heat Flow Temperature 1 24.70 °C
4157 06/09/2026 22:58:00 MB-L5-01Mainboard Lantai 5 L5-LUX-04 Illuminance / LUX 4 0.10 lux
4158 06/09/2026 22:58:00 WS-MOD-01Weather Station Module WS-RH Kelembapan Udara 75.00 %RH
4159 06/09/2026 22:58:00 MB-L5-01Mainboard Lantai 5 L5-RAD-01 Radiation 1 1.00 W/m²
4160 06/09/2026 22:58:00 MB-L5-01Mainboard Lantai 5 L5-AI-01 Analog Input 1 3.05 V
4161 06/09/2026 22:58:00 MB-L5-01Mainboard Lantai 5 L5-LUX-02 Illuminance / LUX 2 0.10 lux
4162 06/09/2026 22:58:00 PWR-L5-01Power Meter L5 PZEM 01 PZEM-L5-01-FREQ PZEM L5-01 Frequency 50.00 Hz
4163 06/09/2026 22:58:00 PWR-L5-02Power Meter L5 PZEM 02 PZEM-L5-02-ENERGY PZEM L5-02 Energy 0.04 kWh
4164 06/09/2026 22:58:00 MB-L3-01Mainboard Lantai 3 L3-LUX-01 Illuminance / LUX 1 0.20 lux
4165 06/09/2026 22:58:00 MB-L5-01Mainboard Lantai 5 L5-LUX-06 Illuminance / LUX 6 0.10 lux
4166 06/09/2026 22:58:00 MB-L3-01Mainboard Lantai 3 L3-AI-02 Analog Input 2 3.12 V
4167 06/09/2026 22:58:00 MB-L5-01Mainboard Lantai 5 L5-AI-04 Analog Input 4 3.05 V
4168 06/09/2026 22:58:00 MB-L3-01Mainboard Lantai 3 L3-SHT-01-RH SHT20 1 Humidity 44.90 %RH
4169 06/09/2026 22:58:00 MB-L3-01Mainboard Lantai 3 L3-LUX-03 Illuminance / LUX 3 0.20 lux
4170 06/09/2026 22:58:00 PWR-L5-01Power Meter L5 PZEM 01 PZEM-L5-01-PF PZEM L5-01 Power Factor 0.37
4171 06/09/2026 22:58:00 WS-MOD-01Weather Station Module WS-TEMP Suhu Udara 20.40 °C
4172 06/09/2026 22:58:00 AC-REMOTE-01Remote AC AC-FAN AC Fan Speed 0.00 code
4173 06/09/2026 22:58:00 MB-L5-01Mainboard Lantai 5 L5-BGT-03 Black Globe Temperature 3 26.80 °C
4174 06/09/2026 22:58:00 MB-L3-01Mainboard Lantai 3 L3-SHT-03-T SHT20 3 Temperature 29.20 °C
4175 06/09/2026 22:57:00 PWR-L5-02Power Meter L5 PZEM 02 PZEM-L5-02-PF PZEM L5-02 Power Factor 0.00
4176 06/09/2026 22:57:00 MB-L5-01Mainboard Lantai 5 L5-BGT-01 Black Globe Temperature 1 27.10 °C
4177 06/09/2026 22:57:00 MB-L5-01Mainboard Lantai 5 L5-AI-05 Analog Input 5 3.05 V
4178 06/09/2026 22:57:00 MB-L3-01Mainboard Lantai 3 L3-AI-03 Analog Input 3 3.12 V
4179 06/09/2026 22:57:00 WS-MOD-01Weather Station Module WS-WIND Kecepatan Angin 7.08 m/s
4180 06/09/2026 22:57:00 PWR-L5-01Power Meter L5 PZEM 01 PZEM-L5-01-CURR PZEM L5-01 Current 0.12 A
4181 06/09/2026 22:57:00 MB-L5-01Mainboard Lantai 5 L5-ST-02 Surface Temperature 2 24.40 °C
4182 06/09/2026 22:57:00 MB-L5-01Mainboard Lantai 5 L5-SHT-01-RH SHT20 1 Humidity 45.20 %RH
4183 06/09/2026 22:57:00 PWR-L5-02Power Meter L5 PZEM 02 PZEM-L5-02-CURR PZEM L5-02 Current 0.00 A
4184 06/09/2026 22:57:00 MB-L3-01Mainboard Lantai 3 L3-LUX-06 Illuminance / LUX 6 0.30 lux
4185 06/09/2026 22:57:00 WS-MOD-01Weather Station Module WS-PRES Tekanan Udara 912.00 hPa
4186 06/09/2026 22:57:00 MB-L5-01Mainboard Lantai 5 L5-SHT-02-T SHT20 2 Temperature 29.40 °C
4187 06/09/2026 22:57:00 MB-L3-01Mainboard Lantai 3 L3-LUX-04 Illuminance / LUX 4 0.10 lux
4188 06/09/2026 22:57:00 AC-REMOTE-01Remote AC AC-SETPOINT AC Set Temperature 23.00 °C
4189 06/09/2026 22:57:00 PWR-L5-01Power Meter L5 PZEM 01 PZEM-L5-01-POWER PZEM L5-01 Active Power 10.70 W
4190 06/09/2026 22:57:00 MB-L3-01Mainboard Lantai 3 L3-AI-01 Analog Input 1 3.12 V
4191 06/09/2026 22:57:00 MB-L5-01Mainboard Lantai 5 L5-SHT-03-RH SHT20 3 Humidity 44.80 %RH
4192 06/09/2026 22:57:00 MB-L3-01Mainboard Lantai 3 L3-SHT-02-RH SHT20 2 Humidity 44.50 %RH
4193 06/09/2026 22:57:00 MB-L5-01Mainboard Lantai 5 L5-SHT-01-T SHT20 1 Temperature 29.00 °C
4194 06/09/2026 22:57:00 MB-L3-01Mainboard Lantai 3 L3-SHT-03-RH SHT20 3 Humidity 44.80 %RH
4195 06/09/2026 22:57:00 MB-L5-01Mainboard Lantai 5 L5-LUX-03 Illuminance / LUX 3 0.20 lux
4196 06/09/2026 22:57:00 MB-L5-01Mainboard Lantai 5 L5-SHT-03-T SHT20 3 Temperature 29.20 °C
4197 06/09/2026 22:57:00 MB-L3-01Mainboard Lantai 3 L3-AI-06 Analog Input 6 3.12 V
4198 06/09/2026 22:57:00 MB-L5-01Mainboard Lantai 5 L5-AI-03 Analog Input 3 3.05 V
4199 06/09/2026 22:57:00 MB-L5-01Mainboard Lantai 5 L5-SHT-02-RH SHT20 2 Humidity 44.50 %RH
4200 06/09/2026 22:57:00 PWR-L5-02Power Meter L5 PZEM 02 PZEM-L5-02-FREQ PZEM L5-02 Frequency 50.00 Hz
Menampilkan maksimal 100 data per halaman